Time,TemperatureF,DewpointF,PressureIn,WindDirection,WindDirectionDegrees,WindSpeedMPH,WindSpeedGustMPH,Humidity,HourlyPrecipIn,Conditions,Clouds,dailyrainin,SoftwareType,DateUTC
2013-05-13 00:03:00,77.0,-99.9,30.00,SW,217,6.0,6.0,-999,-99.99,,,-99.99,,2013-05-13 04:03:00,
2013-05-13 00:12:00,77.0,-99.9,29.99,SW,226,4.0,5.0,-999,-99.99,,,-99.99,,2013-05-13 04:12:00,
2013-05-13 00:23:00,78.0,-99.9,29.99,SW,229,5.0,6.0,-999,-99.99,,,-99.99,,2013-05-13 04:23:00,
2013-05-13 00:33:00,77.0,-99.9,29.99,SW,219,4.0,6.0,-999,-99.99,,,-99.99,,2013-05-13 04:33:00,
2013-05-13 00:42:00,77.0,-99.9,29.98,WSW,237,4.0,5.0,-999,-99.99,,,-99.99,,2013-05-13 04:42:00,
2013-05-13 00:53:00,77.0,-99.9,29.98,SW,226,4.0,5.0,-999,-99.99,,,-99.99,,2013-05-13 04:53:00,
2013-05-13 01:02:00,77.0,-99.9,29.98,SW,227,5.0,6.0,-999,-99.99,,,-99.99,,2013-05-13 05:02:00,
2013-05-13 01:12:00,77.0,-99.9,29.97,SW,215,4.0,6.0,-999,-99.99,,,-99.99,,2013-05-13 05:12:00,
2013-05-13 01:22:00,77.0,-99.9,29.97,SSW,205,4.0,5.0,-999,-99.99,,,-99.99,,2013-05-13 05:22:00,
2013-05-13 01:32:00,77.0,-99.9,29.96,SSW,198,2.0,4.0,-999,-99.99,,,-99.99,,2013-05-13 05:32:00,
2013-05-13 01:42:00,77.0,-99.9,29.96,SSW,204,2.0,4.0,-999,-99.99,,,-99.99,,2013-05-13 05:42:00,
2013-05-13 01:52:00,77.0,-99.9,29.96,SSW,197,4.0,4.0,-999,-99.99,,,-99.99,,2013-05-13 05:52:00,
2013-05-13 02:01:00,77.0,-99.9,29.95,SSE,153,3.0,4.0,-999,-99.99,,,-99.99,,2013-05-13 06:01:00,
2013-05-13 02:12:00,77.0,-99.9,29.95,SSE,157,4.0,5.0,-999,-99.99,,,-99.99,,2013-05-13 06:12:00,
2013-05-13 02:22:00,78.0,-99.9,29.95,SE,129,4.0,6.0,-999,-99.99,,,-99.99,,2013-05-13 06:22:00,
2013-05-13 02:32:00,78.0,-99.9,29.95,ESE,107,2.0,5.0,-999,-99.99,,,-99.99,,2013-05-13 06:32:00,
2013-05-13 02:42:00,78.0,-99.9,29.94,ESE,118,3.0,4.0,-999,-99.99,,,-99.99,,2013-05-13 06:42:00,
2013-05-13 02:52:00,77.0,-99.9,29.94,SSE,149,4.0,5.0,-999,-99.99,,,-99.99,,2013-05-13 06:52:00,
2013-05-13 03:01:00,78.0,-99.9,29.94,SSE,167,3.0,4.0,-999,-99.99,,,-99.99,,2013-05-13 07:01:00,
2013-05-13 03:11:00,77.0,-99.9,29.94,SW,234,3.0,6.0,-999,-99.99,,,-99.99,,2013-05-13 07:11:00,
2013-05-13 03:22:00,77.0,-99.9,29.94,WSW,242,4.0,6.0,-999,-99.99,,,-99.99,,2013-05-13 07:22:00,
2013-05-13 03:32:00,77.0,-99.9,29.94,WSW,250,2.0,3.0,-999,-99.99,,,-99.99,,2013-05-13 07:32:00,
2013-05-13 03:42:00,77.0,-99.9,29.94,WSW,253,0.0,2.0,-999,-99.99,,,-99.99,,2013-05-13 07:42:00,
2013-05-13 03:52:00,77.0,-99.9,29.94,SW,231,2.0,3.0,-999,-99.99,,,-99.99,,2013-05-13 07:52:00,
2013-05-13 04:02:00,76.0,-99.9,29.94,SSW,213,2.0,4.0,-999,-99.99,,,-99.99,,2013-05-13 08:02:00,
2013-05-13 04:11:00,76.0,-99.9,29.94,SW,233,3.0,4.0,-999,-99.99,,,-99.99,,2013-05-13 08:11:00,
2013-05-13 04:22:00,76.0,-99.9,29.94,WSW,241,4.0,5.0,-999,-99.99,,,-99.99,,2013-05-13 08:22:00,
2013-05-13 04:32:00,76.0,-99.9,29.94,SW,227,3.0,4.0,-999,-99.99,,,-99.99,,2013-05-13 08:32:00,
2013-05-13 04:42:00,76.0,-99.9,29.95,WSW,240,3.0,4.0,-999,-99.99,,,-99.99,,2013-05-13 08:42:00,
2013-05-13 04:52:00,76.0,-99.9,29.95,SW,232,3.0,4.0,-999,-99.99,,,-99.99,,2013-05-13 08:52:00,
2013-05-13 05:01:00,76.0,-99.9,29.95,SW,228,3.0,4.0,-999,-99.99,,,-99.99,,2013-05-13 09:01:00,
2013-05-13 05:11:00,76.0,-99.9,29.95,SW,216,4.0,5.0,-999,-99.99,,,-99.99,,2013-05-13 09:11:00,
2013-05-13 05:21:00,76.0,-99.9,29.96,SW,234,4.0,5.0,-999,-99.99,,,-99.99,,2013-05-13 09:21:00,
2013-05-13 05:33:00,76.0,-99.9,29.96,SW,236,2.0,4.0,-999,-99.99,,,-99.99,,2013-05-13 09:33:00,
2013-05-13 05:42:00,76.0,-99.9,29.96,West,269,3.0,4.0,-999,-99.99,,,-99.99,,2013-05-13 09:42:00,
2013-05-13 05:52:00,76.0,-99.9,29.97,West,267,2.0,3.0,-999,-99.99,,,-99.99,,2013-05-13 09:52:00,
2013-05-13 06:03:00,76.0,-99.9,29.97,WSW,246,3.0,4.0,-999,-99.99,,,-99.99,,2013-05-13 10:03:00,
2013-05-13 06:12:00,76.0,-99.9,29.97,WSW,240,2.0,4.0,-999,-99.99,,,-99.99,,2013-05-13 10:12:00,
2013-05-13 06:22:00,76.0,-99.9,29.97,SW,236,2.0,3.0,-999,-99.99,,,-99.99,,2013-05-13 10:22:00,
2013-05-13 06:33:00,76.0,-99.9,29.97,SW,236,2.0,5.0,-999,-99.99,,,-99.99,,2013-05-13 10:33:00,
2013-05-13 06:43:00,76.0,-99.9,29.98,West,268,2.0,5.0,-999,-99.99,,,-99.99,,2013-05-13 10:43:00,
2013-05-13 06:53:00,76.0,-99.9,29.98,WSW,250,4.0,7.0,-999,-99.99,,,-99.99,,2013-05-13 10:53:00,
2013-05-13 07:03:00,76.0,-99.9,29.98,WSW,239,2.0,5.0,-999,-99.99,,,-99.99,,2013-05-13 11:03:00,
2013-05-13 07:12:00,76.0,-99.9,29.98,WNW,291,1.0,3.0,-999,-99.99,,,-99.99,,2013-05-13 11:12:00,
2013-05-13 07:22:00,77.0,-99.9,29.99,West,268,1.0,2.0,-999,-99.99,,,-99.99,,2013-05-13 11:22:00,
2013-05-13 07:32:00,78.0,-99.9,29.99,SW,236,0.0,1.0,-999,-99.99,,,-99.99,,2013-05-13 11:32:00,
2013-05-13 07:42:00,78.0,-99.9,29.99,SW,224,2.0,3.0,-999,-99.99,,,-99.99,,2013-05-13 11:42:00,
2013-05-13 07:52:00,79.0,-99.9,30.00,SSW,198,-999.0,2.0,-999,-99.99,,,-99.99,,2013-05-13 11:52:00,
2013-05-13 08:02:00,79.0,-99.9,30.00,SW,223,1.0,1.0,-999,-99.99,,,-99.99,,2013-05-13 12:02:00,
2013-05-13 08:12:00,80.0,-99.9,30.00,WSW,248,1.0,1.0,-999,-99.99,,,-99.99,,2013-05-13 12:12:00,
2013-05-13 08:21:00,81.0,-99.9,30.01,SSW,196,-999.0,2.0,-999,-99.99,,,-99.99,,2013-05-13 12:21:00,
2013-05-13 08:32:00,83.0,-99.9,30.00,SE,127,1.0,2.0,-999,-99.99,,,-99.99,,2013-05-13 12:32:00,
2013-05-13 08:42:00,83.0,-99.9,30.00,NE,51,2.0,4.0,-999,-99.99,,,-99.99,,2013-05-13 12:42:00,
2013-05-13 08:52:00,82.0,-99.9,30.00,East,79,4.0,6.0,-999,-99.99,,,-99.99,,2013-05-13 12:52:00,
2013-05-13 09:01:00,82.0,-99.9,30.01,ENE,66,5.0,7.0,-999,-99.99,,,-99.99,,2013-05-13 13:01:00,
2013-05-13 09:11:00,82.0,-99.9,30.01,ENE,65,5.0,7.0,-999,-99.99,,,-99.99,,2013-05-13 13:11:00,
2013-05-13 09:22:00,82.0,-99.9,30.01,ENE,61,6.0,9.0,-999,-99.99,,,-99.99,,2013-05-13 13:22:00,
2013-05-13 09:32:00,82.0,-99.9,30.01,ENE,68,5.0,9.0,-999,-99.99,,,-99.99,,2013-05-13 13:32:00,
2013-05-13 09:42:00,82.0,-99.9,30.01,ENE,68,5.0,9.0,-999,-99.99,,,-99.99,,2013-05-13 13:42:00,
2013-05-13 09:52:00,82.0,-99.9,30.01,ENE,68,5.0,9.0,-999,-99.99,,,-99.99,,2013-05-13 13:52:00,
2013-05-13 10:02:00,82.0,-99.9,30.01,ENE,68,5.0,9.0,-999,-99.99,,,-99.99,,2013-05-13 14:02:00,
2013-05-13 10:11:00,83.0,-99.9,30.02,ENE,60,9.0,11.0,-999,-99.99,,,-99.99,,2013-05-13 14:11:00,
2013-05-13 10:22:00,83.0,-99.9,30.02,ENE,66,9.0,12.0,-999,-99.99,,,-99.99,,2013-05-13 14:22:00,
2013-05-13 10:32:00,82.0,-99.9,30.02,ENE,77,10.0,15.0,-999,-99.99,,,-99.99,,2013-05-13 14:32:00,
2013-05-13 10:42:00,82.0,-99.9,30.02,ENE,68,14.0,16.0,-999,-99.99,,,-99.99,,2013-05-13 14:42:00,
2013-05-13 10:52:00,83.0,-99.9,30.02,ENE,73,11.0,13.0,-999,-99.99,,,-99.99,,2013-05-13 14:52:00,
2013-05-13 11:01:00,83.0,-99.9,30.02,ENE,65,10.0,14.0,-999,-99.99,,,-99.99,,2013-05-13 15:01:00,
2013-05-13 11:11:00,83.0,-99.9,30.02,ENE,69,13.0,16.0,-999,-99.99,,,-99.99,,2013-05-13 15:11:00,
2013-05-13 11:22:00,83.0,-99.9,30.02,ENE,69,13.0,16.0,-999,-99.99,,,-99.99,,2013-05-13 15:22:00,
2013-05-13 11:30:00,83.0,-99.9,30.01,ENE,78,14.0,19.0,-999,-99.99,,,-99.99,,2013-05-13 15:30:00,
2013-05-13 11:32:00,83.0,-99.9,30.02,ENE,69,13.0,16.0,-999,-99.99,,,-99.99,,2013-05-13 15:32:00,
2013-05-13 12:22:00,83.0,-99.9,30.01,ENE,78,14.0,19.0,-999,-99.99,,,-99.99,,2013-05-13 16:22:00,
2013-05-13 14:42:00,83.0,-99.9,29.98,ENE,73,13.0,17.0,-999,-99.99,,,-99.99,,2013-05-13 18:42:00,
2013-05-13 14:52:00,78.0,-99.9,29.98,West,280,12.0,14.0,-999,-99.99,,,-99.99,,2013-05-13 18:52:00,
2013-05-13 15:01:00,78.0,-99.9,29.98,NW,305,12.0,21.0,-999,-99.99,,,-99.99,,2013-05-13 19:01:00,
2013-05-13 15:12:00,77.0,-99.9,29.98,NW,319,7.0,15.0,-999,-99.99,,,-99.99,,2013-05-13 19:12:00,
2013-05-13 15:22:00,78.0,-99.9,29.97,WNW,294,6.0,9.0,-999,-99.99,,,-99.99,,2013-05-13 19:22:00,
2013-05-13 15:33:00,78.0,-99.9,29.97,West,270,8.0,9.0,-999,-99.99,,,-99.99,,2013-05-13 19:33:00,
2013-05-13 15:44:00,78.0,-99.9,29.97,South,181,11.0,12.0,-999,-99.99,,,-99.99,,2013-05-13 19:44:00,
2013-05-13 15:53:00,79.0,-99.9,29.96,SSW,210,5.0,10.0,-999,-99.99,,,-99.99,,2013-05-13 19:53:00,
2013-05-13 16:02:00,79.0,-99.9,29.96,SSW,198,2.0,4.0,-999,-99.99,,,-99.99,,2013-05-13 20:02:00,
2013-05-13 16:11:00,81.0,-99.9,29.96,ESE,113,6.0,9.0,-999,-99.99,,,-99.99,,2013-05-13 20:11:00,
2013-05-13 16:23:00,78.0,-99.9,29.96,East,89,7.0,15.0,-999,-99.99,,,-99.99,,2013-05-13 20:23:00,
2013-05-13 16:34:00,79.0,-99.9,29.95,NE,36,4.0,7.0,-999,-99.99,,,-99.99,,2013-05-13 20:34:00,
2013-05-13 16:44:00,82.0,-99.9,29.95,ESE,119,3.0,9.0,-999,-99.99,,,-99.99,,2013-05-13 20:44:00,
2013-05-13 16:53:00,82.0,-99.9,29.95,East,91,8.0,11.0,-999,-99.99,,,-99.99,,2013-05-13 20:53:00,
2013-05-13 17:03:00,83.0,-99.9,29.95,East,90,9.0,14.0,-999,-99.99,,,-99.99,,2013-05-13 21:03:00,
2013-05-13 17:14:00,83.0,-99.9,29.94,East,95,11.0,13.0,-999,-99.99,,,-99.99,,2013-05-13 21:14:00,
2013-05-13 17:23:00,83.0,-99.9,29.95,East,84,10.0,18.0,-999,-99.99,,,-99.99,,2013-05-13 21:23:00,
2013-05-13 17:34:00,82.0,-99.9,29.95,East,83,11.0,15.0,-999,-99.99,,,-99.99,,2013-05-13 21:34:00,
2013-05-13 17:44:00,83.0,-99.9,29.95,East,83,9.0,14.0,-999,-99.99,,,-99.99,,2013-05-13 21:44:00,
2013-05-13 17:53:00,82.0,-99.9,29.95,East,79,11.0,14.0,-999,-99.99,,,-99.99,,2013-05-13 21:53:00,
2013-05-13 18:03:00,83.0,-99.9,29.96,East,87,9.0,13.0,-999,-99.99,,,-99.99,,2013-05-13 22:03:00,
2013-05-13 18:12:00,83.0,-99.9,29.96,East,86,9.0,16.0,-999,-99.99,,,-99.99,,2013-05-13 22:12:00,
2013-05-13 18:23:00,83.0,-99.9,29.96,East,86,10.0,13.0,-999,-99.99,,,-99.99,,2013-05-13 22:23:00,
2013-05-13 18:32:00,83.0,-99.9,29.96,East,92,9.0,15.0,-999,-99.99,,,-99.99,,2013-05-13 22:32:00,
2013-05-13 18:43:00,83.0,-99.9,29.96,East,90,8.0,15.0,-999,-99.99,,,-99.99,,2013-05-13 22:43:00,
2013-05-13 18:52:00,82.0,-99.9,29.97,East,79,11.0,16.0,-999,-99.99,,,-99.99,,2013-05-13 22:52:00,
2013-05-13 19:02:00,82.0,-99.9,29.97,East,85,9.0,13.0,-999,-99.99,,,-99.99,,2013-05-13 23:02:00,
2013-05-13 19:13:00,82.0,-99.9,29.97,East,91,10.0,16.0,-999,-99.99,,,-99.99,,2013-05-13 23:13:00,
2013-05-13 19:23:00,82.0,-99.9,29.97,East,94,10.0,14.0,-999,-99.99,,,-99.99,,2013-05-13 23:23:00,
2013-05-13 19:34:00,82.0,-99.9,29.98,East,94,11.0,15.0,-999,-99.99,,,-99.99,,2013-05-13 23:34:00,
2013-05-13 19:42:00,82.0,-99.9,29.98,East,96,9.0,12.0,-999,-99.99,,,-99.99,,2013-05-13 23:42:00,
2013-05-13 19:54:00,82.0,-99.9,29.98,East,96,11.0,16.0,-999,-99.99,,,-99.99,,2013-05-13 23:54:00,
2013-05-13 20:03:00,82.0,-99.9,29.98,East,99,10.0,13.0,-999,-99.99,,,-99.99,,2013-05-14 00:03:00,
2013-05-13 20:13:00,82.0,-99.9,29.99,ESE,103,11.0,13.0,-999,-99.99,,,-99.99,,2013-05-14 00:13:00,
2013-05-13 20:22:00,82.0,-99.9,29.99,East,98,9.0,15.0,-999,-99.99,,,-99.99,,2013-05-14 00:22:00,
2013-05-13 20:32:00,82.0,-99.9,29.99,East,98,10.0,13.0,-999,-99.99,,,-99.99,,2013-05-14 00:32:00,
2013-05-13 20:42:00,82.0,-99.9,29.99,East,101,11.0,14.0,-999,-99.99,,,-99.99,,2013-05-14 00:42:00,
2013-05-13 20:52:00,82.0,-99.9,30.00,ESE,104,9.0,14.0,-999,-99.99,,,-99.99,,2013-05-14 00:52:00,
2013-05-13 21:02:00,82.0,-99.9,30.00,ESE,105,10.0,13.0,-999,-99.99,,,-99.99,,2013-05-14 01:02:00,
2013-05-13 21:11:00,82.0,-99.9,30.00,East,98,8.0,12.0,-999,-99.99,,,-99.99,,2013-05-14 01:11:00,
2013-05-13 21:21:00,81.0,-99.9,30.01,ESE,111,6.0,9.0,-999,-99.99,,,-99.99,,2013-05-14 01:21:00,
2013-05-13 21:32:00,81.0,-99.9,30.01,ESE,106,8.0,11.0,-999,-99.99,,,-99.99,,2013-05-14 01:32:00,
2013-05-13 21:43:00,81.0,-99.9,30.01,ESE,107,8.0,13.0,-999,-99.99,,,-99.99,,2013-05-14 01:43:00,
2013-05-13 21:53:00,82.0,-99.9,30.01,ESE,107,8.0,15.0,-999,-99.99,,,-99.99,,2013-05-14 01:53:00,
2013-05-13 22:02:00,82.0,-99.9,30.02,East,100,9.0,14.0,-999,-99.99,,,-99.99,,2013-05-14 02:02:00,
2013-05-13 22:12:00,82.0,-99.9,30.02,ESE,119,5.0,9.0,-999,-99.99,,,-99.99,,2013-05-14 02:12:00,
2013-05-13 22:22:00,81.0,-99.9,30.02,ESE,119,5.0,9.0,-999,-99.99,,,-99.99,,2013-05-14 02:22:00,
2013-05-13 22:32:00,81.0,-99.9,30.02,ESE,105,9.0,13.0,-999,-99.99,,,-99.99,,2013-05-14 02:32:00,
2013-05-13 22:42:00,81.0,-99.9,30.02,East,100,7.0,9.0,-999,-99.99,,,-99.99,,2013-05-14 02:42:00,
2013-05-13 22:52:00,81.0,-99.9,30.02,East,98,9.0,12.0,-999,-99.99,,,-99.99,,2013-05-14 02:52:00,
2013-05-13 23:01:00,81.0,-99.9,30.02,East,100,7.0,13.0,-999,-99.99,,,-99.99,,2013-05-14 03:01:00,
2013-05-13 23:11:00,81.0,-99.9,30.01,East,100,10.0,13.0,-999,-99.99,,,-99.99,,2013-05-14 03:11:00,
2013-05-13 23:22:00,81.0,-99.9,30.01,ESE,105,8.0,11.0,-999,-99.99,,,-99.99,,2013-05-14 03:22:00,
2013-05-13 23:33:00,81.0,-99.9,30.01,ESE,108,7.0,11.0,-999,-99.99,,,-99.99,,2013-05-14 03:33:00,
2013-05-13 23:43:00,81.0,-99.9,30.01,ESE,102,7.0,10.0,-999,-99.99,,,-99.99,,2013-05-14 03:43:00,
2013-05-13 23:53:00,81.0,-99.9,30.01,ESE,105,9.0,11.0,-999,-99.99,,,-99.99,,2013-05-14 03:53:00,